Time,TemperatureF,DewpointF,PressureIn,WindDirection,WindDirectionDegrees,WindSpeedMPH,WindSpeedGustMPH,Humidity,HourlyPrecipIn,Conditions,Clouds,dailyrainin,SoftwareType,DateUTC
2013-09-09 00:01:00,65.1,45.5,29.18,ESE,117,0.0,2.2,49,0.00,,---,0.00,VWS V14.01,2013-09-09 04:01:00,
2013-09-09 00:02:00,65.1,45.5,29.18,East,92,2.7,2.7,49,0.00,,---,0.00,VWS V14.01,2013-09-09 04:02:00,
2013-09-09 00:05:00,65.1,45.5,29.18,SE,134,0.0,0.0,49,0.00,,---,0.00,VWS V14.01,2013-09-09 04:05:00,
2013-09-09 00:08:00,65.1,46.0,29.18,ESE,116,0.0,0.0,50,0.00,,---,0.00,VWS V14.01,2013-09-09 04:08:00,
2013-09-09 00:13:00,65.1,46.0,29.18,ESE,118,0.0,0.0,50,0.00,,---,0.00,VWS V14.01,2013-09-09 04:13:00,
2013-09-09 00:18:00,65.1,46.0,29.18,SE,126,0.0,3.6,50,0.00,,---,0.00,VWS V14.01,2013-09-09 04:18:00,
2013-09-09 00:23:00,64.9,45.9,29.18,SE,127,0.0,0.0,50,0.00,,---,0.00,VWS V14.01,2013-09-09 04:23:00,
2013-09-09 00:28:00,64.8,45.7,29.18,East,101,0.0,0.0,50,0.00,,---,0.00,VWS V14.01,2013-09-09 04:28:00,
2013-09-09 00:33:00,64.8,45.7,29.18,ESE,123,0.0,2.7,50,0.00,,---,0.00,VWS V14.01,2013-09-09 04:33:00,
2013-09-09 00:38:00,64.8,46.2,29.18,ESE,106,0.0,0.0,51,0.00,,---,0.00,VWS V14.01,2013-09-09 04:38:00,
2013-09-09 00:43:00,64.8,46.2,29.18,ESE,110,0.0,0.0,51,0.00,,---,0.00,VWS V14.01,2013-09-09 04:43:00,
2013-09-09 00:48:00,64.6,46.1,29.18,East,100,0.0,0.0,51,0.00,,---,0.00,VWS V14.01,2013-09-09 04:48:00,
2013-09-09 00:53:00,64.6,46.6,29.18,SE,142,3.1,3.1,52,0.00,,---,0.00,VWS V14.01,2013-09-09 04:53:00,
2013-09-09 00:58:00,64.4,46.4,29.18,SE,131,0.0,0.0,52,0.00,,---,0.00,VWS V14.01,2013-09-09 04:58:00,
2013-09-09 01:03:00,64.4,46.9,29.18,SE,127,0.0,0.0,53,0.00,,---,0.00,VWS V14.01,2013-09-09 05:03:00,
2013-09-09 01:08:00,64.2,47.2,29.18,SE,131,0.0,0.0,54,0.00,,---,0.00,VWS V14.01,2013-09-09 05:08:00,
2013-09-09 01:13:00,64.2,47.2,29.18,SE,140,2.7,2.7,54,0.00,,---,0.00,VWS V14.01,2013-09-09 05:13:00,
2013-09-09 01:18:00,64.2,47.7,29.18,ESE,105,0.0,0.0,55,0.00,,---,0.00,VWS V14.01,2013-09-09 05:18:00,
2013-09-09 01:23:00,64.2,47.7,29.18,ESE,120,3.1,3.1,55,0.00,,---,0.00,VWS V14.01,2013-09-09 05:23:00,
2013-09-09 01:28:00,64.0,47.6,29.18,ESE,116,0.0,0.0,55,0.00,,---,0.00,VWS V14.01,2013-09-09 05:28:00,
2013-09-09 01:33:00,63.9,47.4,29.18,SE,125,0.0,0.0,55,0.00,,---,0.00,VWS V14.01,2013-09-09 05:33:00,
2013-09-09 01:38:00,63.9,47.9,29.18,ESE,116,0.0,0.0,56,0.00,,---,0.00,VWS V14.01,2013-09-09 05:38:00,
2013-09-09 01:43:00,63.9,47.9,29.18,ESE,116,0.0,0.0,56,0.00,,---,0.00,VWS V14.01,2013-09-09 05:43:00,
2013-09-09 01:48:00,63.9,48.3,29.18,ESE,116,0.0,0.0,57,0.00,,---,0.00,VWS V14.01,2013-09-09 05:48:00,
2013-09-09 01:53:00,63.9,48.3,29.18,ESE,116,0.0,0.0,57,0.00,,---,0.00,VWS V14.01,2013-09-09 05:53:00,
2013-09-09 01:59:00,63.9,47.9,29.18,ESE,110,0.0,0.0,56,0.00,,---,0.00,VWS V14.01,2013-09-09 05:59:00,
2013-09-09 02:04:00,63.7,48.2,29.18,SE,139,0.0,0.0,57,0.00,,---,0.00,VWS V14.01,2013-09-09 06:04:00,
2013-09-09 02:09:00,63.7,48.2,29.18,SE,129,0.0,0.0,57,0.00,,---,0.00,VWS V14.01,2013-09-09 06:09:00,
2013-09-09 02:14:00,63.7,48.2,29.18,SE,129,0.0,0.0,57,0.00,,---,0.00,VWS V14.01,2013-09-09 06:14:00,
2013-09-09 02:19:00,63.5,48.5,29.18,SE,129,0.0,0.0,58,0.00,,---,0.00,VWS V14.01,2013-09-09 06:19:00,
2013-09-09 02:24:00,63.5,48.5,29.18,SE,128,0.0,0.0,58,0.00,,---,0.00,VWS V14.01,2013-09-09 06:24:00,
2013-09-09 02:29:00,63.5,48.5,29.18,SE,128,0.0,0.0,58,0.00,,---,0.00,VWS V14.01,2013-09-09 06:29:00,
2013-09-09 02:34:00,63.5,48.5,29.18,SE,128,0.0,0.0,58,0.00,,---,0.00,VWS V14.01,2013-09-09 06:34:00,
2013-09-09 02:39:00,63.3,48.3,29.18,SE,131,0.0,0.0,58,0.00,,---,0.00,VWS V14.01,2013-09-09 06:39:00,
2013-09-09 02:44:00,63.3,48.3,29.18,SE,131,0.0,0.0,58,0.00,,---,0.00,VWS V14.01,2013-09-09 06:44:00,
2013-09-09 02:49:00,63.1,48.6,29.18,SE,131,0.0,0.0,59,0.00,,---,0.00,VWS V14.01,2013-09-09 06:49:00,
2013-09-09 02:54:00,63.1,48.6,29.18,SE,131,0.0,0.0,59,0.00,,---,0.00,VWS V14.01,2013-09-09 06:54:00,
2013-09-09 02:59:00,63.1,48.6,29.18,SE,131,0.0,0.0,59,0.00,,---,0.00,VWS V14.01,2013-09-09 06:59:00,
2013-09-09 03:04:00,63.1,48.6,29.18,SE,131,0.0,0.0,59,0.00,,---,0.00,VWS V14.01,2013-09-09 07:04:00,
2013-09-09 03:09:00,63.1,49.0,29.18,SE,131,0.0,0.0,60,0.00,,---,0.00,VWS V14.01,2013-09-09 07:09:00,
2013-09-09 03:14:00,63.1,49.0,29.18,SE,131,0.0,0.0,60,0.00,,---,0.00,VWS V14.01,2013-09-09 07:14:00,
2013-09-09 03:19:00,63.1,49.0,29.18,SE,131,0.0,0.0,60,0.00,,---,0.00,VWS V14.01,2013-09-09 07:19:00,
2013-09-09 03:24:00,63.0,48.9,29.18,SE,131,0.0,0.0,60,0.00,,---,0.00,VWS V14.01,2013-09-09 07:24:00,
2013-09-09 03:29:00,63.0,49.3,29.18,SE,131,0.0,0.0,61,0.00,,---,0.00,VWS V14.01,2013-09-09 07:29:00,
2013-09-09 03:34:00,63.0,49.8,29.18,SE,131,0.0,0.0,62,0.00,,---,0.00,VWS V14.01,2013-09-09 07:34:00,
2013-09-09 03:39:00,63.0,49.8,29.18,SE,131,0.0,0.0,62,0.00,,---,0.00,VWS V14.01,2013-09-09 07:39:00,
2013-09-09 03:44:00,63.0,49.8,29.18,SE,131,0.0,0.0,62,0.00,,---,0.00,VWS V14.01,2013-09-09 07:44:00,
2013-09-09 03:49:00,63.0,50.2,29.18,SE,131,0.0,0.0,63,0.00,,---,0.00,VWS V14.01,2013-09-09 07:49:00,
2013-09-09 03:55:00,62.8,49.6,29.18,SE,131,0.0,0.0,62,0.00,,---,0.00,VWS V14.01,2013-09-09 07:55:00,
2013-09-09 04:00:00,62.6,49.4,29.18,SE,131,0.0,0.0,62,0.00,,---,0.00,VWS V14.01,2013-09-09 08:00:00,
2013-09-09 04:05:00,62.6,49.8,29.18,SE,131,0.0,0.0,63,0.00,,---,0.00,VWS V14.01,2013-09-09 08:05:00,
2013-09-09 04:10:00,62.6,49.8,29.18,SE,131,0.0,0.0,63,0.00,,---,0.00,VWS V14.01,2013-09-09 08:10:00,
2013-09-09 04:15:00,62.6,50.3,29.18,SE,131,0.0,0.0,64,0.00,,---,0.00,VWS V14.01,2013-09-09 08:15:00,
2013-09-09 04:20:00,62.6,50.3,29.18,SE,131,0.0,0.0,64,0.00,,---,0.00,VWS V14.01,2013-09-09 08:20:00,
2013-09-09 04:25:00,62.6,50.7,29.18,SE,131,0.0,0.0,65,0.00,,---,0.00,VWS V14.01,2013-09-09 08:25:00,
2013-09-09 04:30:00,62.6,50.7,29.18,SE,131,0.0,0.0,65,0.00,,---,0.00,VWS V14.01,2013-09-09 08:30:00,
2013-09-09 04:35:00,62.6,50.7,29.18,SE,131,0.0,0.0,65,0.00,,---,0.00,VWS V14.01,2013-09-09 08:35:00,
2013-09-09 04:40:00,62.6,51.1,29.18,SE,131,0.0,0.0,66,0.00,,---,0.00,VWS V14.01,2013-09-09 08:40:00,
2013-09-09 04:45:00,62.6,51.1,29.18,SE,131,0.0,0.0,66,0.00,,---,0.00,VWS V14.01,2013-09-09 08:45:00,
2013-09-09 04:50:00,62.6,51.1,29.15,SE,131,0.0,0.0,66,0.00,,---,0.00,VWS V14.01,2013-09-09 08:50:00,
2013-09-09 04:55:00,62.4,51.3,29.15,SE,131,0.0,0.0,67,0.00,,---,0.00,VWS V14.01,2013-09-09 08:55:00,
2013-09-09 05:00:00,62.4,51.3,29.15,SE,131,0.0,0.0,67,0.00,,---,0.00,VWS V14.01,2013-09-09 09:00:00,
2013-09-09 05:05:00,62.4,51.7,29.15,SE,131,0.0,0.0,68,0.00,,---,0.00,VWS V14.01,2013-09-09 09:05:00,
2013-09-09 05:10:00,62.4,51.7,29.15,SE,131,0.0,0.0,68,0.00,,---,0.00,VWS V14.01,2013-09-09 09:10:00,
2013-09-09 05:15:00,62.4,51.7,29.15,SE,131,0.0,0.0,68,0.00,,---,0.00,VWS V14.01,2013-09-09 09:15:00,
2013-09-09 05:20:00,62.2,51.6,29.15,SE,131,0.0,0.0,68,0.00,,---,0.00,VWS V14.01,2013-09-09 09:20:00,
2013-09-09 05:25:00,62.2,51.6,29.15,SE,131,0.0,0.0,68,0.00,,---,0.00,VWS V14.01,2013-09-09 09:25:00,
2013-09-09 05:30:00,62.2,51.6,29.15,SE,131,0.0,0.0,68,0.00,,---,0.00,VWS V14.01,2013-09-09 09:30:00,
2013-09-09 05:35:00,62.2,52.0,29.15,SE,131,0.0,0.0,69,0.00,,---,0.00,VWS V14.01,2013-09-09 09:35:00,
2013-09-09 05:40:00,62.2,52.0,29.15,SE,131,0.0,0.0,69,0.00,,---,0.00,VWS V14.01,2013-09-09 09:40:00,
2013-09-09 05:45:00,62.2,52.0,29.15,SE,131,0.0,0.0,69,0.00,,---,0.00,VWS V14.01,2013-09-09 09:45:00,
2013-09-09 05:51:00,62.2,52.0,29.15,SE,131,0.0,0.0,69,0.00,,---,0.00,VWS V14.01,2013-09-09 09:51:00,
2013-09-09 05:56:00,62.4,52.5,29.15,SE,131,0.0,0.0,70,0.00,,---,0.00,VWS V14.01,2013-09-09 09:56:00,
2013-09-09 06:01:00,62.4,52.5,29.15,SE,131,0.0,0.0,70,0.00,,---,0.00,VWS V14.01,2013-09-09 10:01:00,
2013-09-09 06:06:00,62.6,52.7,29.15,SE,131,0.0,0.0,70,0.00,,---,0.00,VWS V14.01,2013-09-09 10:06:00,
2013-09-09 06:11:00,62.6,52.7,29.15,SE,131,0.0,0.0,70,0.00,,---,0.00,VWS V14.01,2013-09-09 10:11:00,
2013-09-09 06:16:00,62.4,52.5,29.15,SE,131,0.0,0.0,70,0.00,,---,0.00,VWS V14.01,2013-09-09 10:16:00,
2013-09-09 06:21:00,62.4,52.5,29.15,SE,131,0.0,0.0,70,0.00,,---,0.00,VWS V14.01,2013-09-09 10:21:00,
2013-09-09 06:26:00,62.4,52.1,29.15,SE,131,0.0,0.0,69,0.00,,---,0.00,VWS V14.01,2013-09-09 10:26:00,
2013-09-09 06:31:00,62.4,52.1,29.15,SE,131,0.0,0.0,69,0.00,,---,0.00,VWS V14.01,2013-09-09 10:31:00,
2013-09-09 06:36:00,62.4,52.5,29.15,SE,131,0.0,0.0,70,0.00,,---,0.00,VWS V14.01,2013-09-09 10:36:00,
2013-09-09 06:41:00,62.6,52.7,29.15,SE,131,0.0,0.0,70,0.00,,---,0.00,VWS V14.01,2013-09-09 10:41:00,
2013-09-09 06:46:00,62.6,52.7,29.15,SE,131,0.0,0.0,70,0.00,,---,0.00,VWS V14.01,2013-09-09 10:46:00,
2013-09-09 06:51:00,62.6,53.1,29.15,SE,131,0.0,0.0,71,0.00,,---,0.00,VWS V14.01,2013-09-09 10:51:00,
2013-09-09 06:56:00,62.8,53.6,29.15,SE,131,0.0,0.0,72,0.00,,---,0.00,VWS V14.01,2013-09-09 10:56:00,
2013-09-09 07:01:00,62.8,53.6,29.15,SE,131,0.0,0.0,72,0.00,,---,0.00,VWS V14.01,2013-09-09 11:01:00,
2013-09-09 07:06:00,62.8,53.2,29.15,SE,131,0.0,0.0,71,0.00,,---,0.00,VWS V14.01,2013-09-09 11:06:00,
2013-09-09 07:11:00,62.6,53.1,29.15,SE,131,0.0,0.0,71,0.00,,---,0.00,VWS V14.01,2013-09-09 11:11:00,
2013-09-09 07:16:00,62.6,53.1,29.15,SE,131,0.0,0.0,71,0.00,,---,0.00,VWS V14.01,2013-09-09 11:16:00,
2013-09-09 07:21:00,62.6,53.5,29.15,SE,131,0.0,0.0,72,0.00,,---,0.00,VWS V14.01,2013-09-09 11:21:00,
2013-09-09 07:26:00,62.6,53.5,29.15,SE,131,0.0,0.0,72,0.00,,---,0.00,VWS V14.01,2013-09-09 11:26:00,
2013-09-09 07:31:00,62.8,54.0,29.15,SE,131,0.0,0.0,73,0.00,,---,0.00,VWS V14.01,2013-09-09 11:31:00,
2013-09-09 07:36:00,62.8,54.0,29.15,SE,131,0.0,0.0,73,0.00,,---,0.00,VWS V14.01,2013-09-09 11:36:00,
2013-09-09 07:41:00,63.0,54.2,29.15,SE,131,0.0,0.0,73,0.00,,---,0.00,VWS V14.01,2013-09-09 11:41:00,
2013-09-09 07:47:00,63.1,54.7,29.15,SE,131,0.0,0.0,74,0.00,,---,0.00,VWS V14.01,2013-09-09 11:47:00,
2013-09-09 07:52:00,63.3,55.3,29.15,SE,131,0.0,0.0,75,0.00,,---,0.00,VWS V14.01,2013-09-09 11:52:00,
2013-09-09 07:57:00,63.5,55.8,29.15,SE,131,0.0,0.0,76,0.00,,---,0.00,VWS V14.01,2013-09-09 11:57:00,
2013-09-09 08:02:00,63.9,56.5,29.18,SE,131,0.0,0.0,77,0.00,,---,0.00,VWS V14.01,2013-09-09 12:02:00,
2013-09-09 08:07:00,64.2,56.9,29.18,SE,133,0.0,0.0,77,0.00,,---,0.00,VWS V14.01,2013-09-09 12:07:00,
2013-09-09 08:12:00,64.4,57.4,29.18,SE,133,0.0,0.0,78,0.00,,---,0.00,VWS V14.01,2013-09-09 12:12:00,
2013-09-09 08:17:00,64.8,57.8,29.18,South,174,0.0,0.0,78,0.00,,---,0.00,VWS V14.01,2013-09-09 12:17:00,
2013-09-09 08:22:00,65.1,58.5,29.18,South,175,0.0,0.0,79,0.00,,---,0.00,VWS V14.01,2013-09-09 12:22:00,
2013-09-09 08:27:00,65.3,58.6,29.18,ESE,112,0.0,3.1,79,0.00,,---,0.00,VWS V14.01,2013-09-09 12:27:00,
2013-09-09 08:32:00,65.8,59.2,29.18,SE,135,0.0,0.0,79,0.00,,---,0.00,VWS V14.01,2013-09-09 12:32:00,
2013-09-09 08:37:00,65.8,59.2,29.18,South,180,0.0,2.2,79,0.00,,---,0.00,VWS V14.01,2013-09-09 12:37:00,
2013-09-09 08:42:00,66.4,59.3,29.18,SSE,154,0.0,2.7,78,0.00,,---,0.00,VWS V14.01,2013-09-09 12:42:00,
2013-09-09 08:47:00,66.6,59.5,29.15,South,179,0.0,4.9,78,0.00,,---,0.00,VWS V14.01,2013-09-09 12:47:00,
2013-09-09 08:52:00,66.9,60.2,29.15,South,173,0.0,0.0,79,0.00,,---,0.00,VWS V14.01,2013-09-09 12:52:00,
2013-09-09 08:57:00,67.3,60.5,29.15,SSW,193,0.0,0.0,79,0.00,,---,0.00,VWS V14.01,2013-09-09 12:57:00,
2013-09-09 09:02:00,67.5,60.7,29.18,SSW,194,0.0,0.0,79,0.00,,---,0.00,VWS V14.01,2013-09-09 13:02:00,
2013-09-09 09:07:00,67.6,60.9,29.18,South,190,0.0,0.0,79,0.00,,---,0.00,VWS V14.01,2013-09-09 13:07:00,
2013-09-09 09:12:00,68.0,60.9,29.18,South,185,0.0,0.0,78,0.00,,---,0.00,VWS V14.01,2013-09-09 13:12:00,
2013-09-09 09:17:00,68.5,61.4,29.18,South,182,0.0,0.0,78,0.00,,---,0.00,VWS V14.01,2013-09-09 13:17:00,
2013-09-09 09:22:00,68.9,61.8,29.18,SW,219,0.0,0.0,78,0.00,,---,0.00,VWS V14.01,2013-09-09 13:22:00,
2013-09-09 09:27:00,69.3,61.8,29.18,SSE,148,0.0,0.0,77,0.00,,---,0.00,VWS V14.01,2013-09-09 13:27:00,
2013-09-09 09:32:00,69.6,62.1,29.18,SW,216,0.0,0.0,77,0.00,,---,0.00,VWS V14.01,2013-09-09 13:32:00,
2013-09-09 09:38:00,70.0,62.1,29.18,SW,235,0.0,0.0,76,0.00,,---,0.00,VWS V14.01,2013-09-09 13:38:00,
2013-09-09 09:43:00,70.3,62.4,29.18,SW,219,0.0,0.0,76,0.00,,---,0.00,VWS V14.01,2013-09-09 13:43:00,
2013-09-09 09:48:00,71.1,62.7,29.18,SSW,212,4.0,5.4,75,0.00,,---,0.00,VWS V14.01,2013-09-09 13:48:00,
2013-09-09 09:53:00,71.6,62.9,29.18,SW,226,3.1,3.1,74,0.00,,---,0.00,VWS V14.01,2013-09-09 13:53:00,
2013-09-09 09:58:00,72.1,63.4,29.18,SW,220,0.0,0.0,74,0.00,,---,0.00,VWS V14.01,2013-09-09 13:58:00,
2013-09-09 10:03:00,72.7,62.3,29.18,SSW,200,0.0,3.6,70,0.00,,---,0.00,VWS V14.01,2013-09-09 14:03:00,
2013-09-09 10:08:00,72.7,62.3,29.18,South,177,3.6,3.6,70,0.00,,---,0.00,VWS V14.01,2013-09-09 14:08:00,
2013-09-09 10:13:00,72.7,62.3,29.18,SSW,201,0.0,0.0,70,0.00,,---,0.00,VWS V14.01,2013-09-09 14:13:00,
2013-09-09 10:18:00,73.6,61.5,29.18,SSW,202,5.8,5.8,66,0.00,,---,0.00,VWS V14.01,2013-09-09 14:18:00,
2013-09-09 10:23:00,73.9,61.0,29.18,SW,220,0.0,0.0,64,0.00,,---,0.00,VWS V14.01,2013-09-09 14:23:00,
2013-09-09 10:28:00,74.1,60.7,29.18,SSW,200,4.0,5.8,63,0.00,,---,0.00,VWS V14.01,2013-09-09 14:28:00,
2013-09-09 10:33:00,74.7,59.9,29.18,WSW,241,4.9,4.9,60,0.00,,---,0.00,VWS V14.01,2013-09-09 14:33:00,
2013-09-09 10:38:00,75.0,59.7,29.18,South,170,0.0,0.0,59,0.00,,---,0.00,VWS V14.01,2013-09-09 14:38:00,
2013-09-09 10:43:00,75.2,56.9,29.18,South,191,3.1,4.0,53,0.00,,---,0.00,VWS V14.01,2013-09-09 14:43:00,
2013-09-09 10:48:00,75.6,56.7,29.18,West,265,4.0,4.0,52,0.00,,---,0.00,VWS V14.01,2013-09-09 14:48:00,
2013-09-09 10:53:00,75.7,54.7,29.18,SW,230,7.6,8.1,48,0.00,,---,0.00,VWS V14.01,2013-09-09 14:53:00,
2013-09-09 10:58:00,76.1,54.4,29.18,SSE,153,0.0,0.0,47,0.00,,---,0.00,VWS V14.01,2013-09-09 14:58:00,
2013-09-09 11:03:00,76.3,54.0,29.18,SSW,213,0.0,0.0,46,0.00,,---,0.00,VWS V14.01,2013-09-09 15:03:00,
2013-09-09 11:09:00,76.5,53.0,29.18,WSW,243,5.8,5.8,44,0.00,,---,0.00,VWS V14.01,2013-09-09 15:09:00,
2013-09-09 11:14:00,76.6,50.5,29.18,WNW,298,2.7,2.7,40,0.00,,---,0.00,VWS V14.01,2013-09-09 15:14:00,
2013-09-09 11:19:00,77.2,49.6,29.18,West,260,2.7,3.1,38,0.00,,---,0.00,VWS V14.01,2013-09-09 15:19:00,
2013-09-09 11:24:00,77.7,48.7,29.18,West,261,5.4,5.4,36,0.00,,---,0.00,VWS V14.01,2013-09-09 15:24:00,
2013-09-09 11:29:00,78.4,48.5,29.18,SSW,209,3.6,7.2,35,0.00,,---,0.00,VWS V14.01,2013-09-09 15:29:00,
2013-09-09 11:34:00,78.8,47.3,29.18,SW,234,2.2,5.8,33,0.00,,---,0.00,VWS V14.01,2013-09-09 15:34:00,
2013-09-09 11:39:00,79.2,46.8,29.18,South,183,0.0,0.0,32,0.00,,---,0.00,VWS V14.01,2013-09-09 15:39:00,
2013-09-09 11:44:00,79.5,45.4,29.18,West,270,5.4,8.7,30,0.00,,---,0.00,VWS V14.01,2013-09-09 15:44:00,
2013-09-09 11:49:00,79.9,46.6,29.18,WNW,292,3.6,5.8,31,0.00,,---,0.00,VWS V14.01,2013-09-09 15:49:00,
2013-09-09 11:54:00,80.2,46.0,29.18,SSW,211,8.3,8.3,30,0.00,,---,0.00,VWS V14.01,2013-09-09 15:54:00,
2013-09-09 11:59:00,80.8,45.6,29.18,South,172,4.0,4.0,29,0.00,,---,0.00,VWS V14.01,2013-09-09 15:59:00,
2013-09-09 12:04:00,81.3,44.2,29.18,WNW,289,8.3,8.3,27,0.00,,---,0.00,VWS V14.01,2013-09-09 16:04:00,
2013-09-09 12:09:00,82.2,44.0,29.18,WNW,283,2.7,8.1,26,0.00,,---,0.00,VWS V14.01,2013-09-09 16:09:00,
2013-09-09 12:14:00,82.8,40.1,29.18,NW,317,3.6,8.1,22,0.00,,---,0.00,VWS V14.01,2013-09-09 16:14:00,
2013-09-09 12:19:00,82.8,37.6,29.18,North,4,8.1,8.7,20,0.00,,---,0.00,VWS V14.01,2013-09-09 16:19:00,
2013-09-09 12:24:00,82.4,36.0,29.18,WSW,257,2.7,8.1,19,0.00,,---,0.00,VWS V14.01,2013-09-09 16:24:00,
2013-09-09 12:29:00,82.4,36.0,29.18,West,270,5.4,5.4,19,0.00,,---,0.00,VWS V14.01,2013-09-09 16:29:00,
2013-09-09 12:34:00,82.4,37.3,29.15,NW,312,3.6,7.6,20,0.00,,---,0.00,VWS V14.01,2013-09-09 16:34:00,
2013-09-09 12:39:00,82.8,36.3,29.15,South,176,0.0,6.3,19,0.00,,---,0.00,VWS V14.01,2013-09-09 16:39:00,
2013-09-09 12:44:00,82.9,36.5,29.15,South,173,6.3,6.3,19,0.00,,---,0.00,VWS V14.01,2013-09-09 16:44:00,
2013-09-09 12:49:00,82.8,36.3,29.15,SW,222,6.3,6.3,19,0.00,,---,0.00,VWS V14.01,2013-09-09 16:49:00,
2013-09-09 12:54:00,82.6,36.2,29.15,South,189,4.0,7.6,19,0.00,,---,0.00,VWS V14.01,2013-09-09 16:54:00,
2013-09-09 13:00:00,82.4,36.0,29.15,South,191,5.4,5.4,19,0.00,,---,0.00,VWS V14.01,2013-09-09 17:00:00,
2013-09-09 13:05:00,82.4,36.0,29.15,SSW,206,5.8,5.8,19,0.00,,---,0.00,VWS V14.01,2013-09-09 17:05:00,
2013-09-09 13:10:00,82.4,36.0,29.15,South,183,4.0,4.9,19,0.00,,---,0.00,VWS V14.01,2013-09-09 17:10:00,
2013-09-09 13:15:00,82.9,37.8,29.15,WSW,246,4.0,4.0,20,0.00,,---,0.00,VWS V14.01,2013-09-09 17:15:00,
2013-09-09 13:20:00,83.3,36.8,29.15,SSW,213,5.8,8.1,19,0.00,,---,0.00,VWS V14.01,2013-09-09 17:20:00,
2013-09-09 13:25:00,83.7,37.1,29.15,SSW,204,4.9,4.9,19,0.00,,---,0.00,VWS V14.01,2013-09-09 17:25:00,
2013-09-09 13:30:00,84.0,37.4,29.15,WSW,240,4.0,4.0,19,0.00,,---,0.00,VWS V14.01,2013-09-09 17:30:00,
2013-09-09 13:35:00,84.4,37.7,29.15,South,190,5.4,5.4,19,0.00,,---,0.00,VWS V14.01,2013-09-09 17:35:00,
2013-09-09 13:40:00,84.9,38.1,29.15,WSW,241,6.3,6.3,19,0.00,,---,0.00,VWS V14.01,2013-09-09 17:40:00,
2013-09-09 13:45:00,85.3,38.4,29.15,South,187,6.3,6.7,19,0.00,,---,0.00,VWS V14.01,2013-09-09 17:45:00,
2013-09-09 13:50:00,86.0,37.6,29.15,West,280,5.4,5.4,18,0.00,,---,0.00,VWS V14.01,2013-09-09 17:50:00,
2013-09-09 13:55:00,86.5,35.1,29.15,SW,217,4.9,5.4,16,0.00,,---,0.00,VWS V14.01,2013-09-09 17:55:00,
2013-09-09 14:00:00,86.7,35.2,29.12,West,262,4.0,5.8,16,0.00,,---,0.00,VWS V14.01,2013-09-09 18:00:00,
2013-09-09 14:05:00,86.5,35.1,29.12,SSW,194,0.0,3.6,16,0.00,,---,0.00,VWS V14.01,2013-09-09 18:05:00,
2013-09-09 14:10:00,87.1,35.5,29.12,SW,226,8.7,8.7,16,0.00,,---,0.00,VWS V14.01,2013-09-09 18:10:00,
2013-09-09 14:15:00,87.4,35.8,29.12,WSW,237,8.3,8.7,16,0.00,,---,0.00,VWS V14.01,2013-09-09 18:15:00,
2013-09-09 14:20:00,87.8,34.5,29.12,WNW,297,11.0,11.0,15,0.00,,---,0.00,VWS V14.01,2013-09-09 18:20:00,
2013-09-09 14:25:00,88.0,34.6,29.12,NW,318,4.5,4.5,15,0.00,,---,0.00,VWS V14.01,2013-09-09 18:25:00,
2013-09-09 14:30:00,88.2,34.7,29.12,WSW,258,5.4,5.8,15,0.00,,---,0.00,VWS V14.01,2013-09-09 18:30:00,
2013-09-09 14:35:00,88.0,34.6,29.12,WSW,254,8.1,8.1,15,0.00,,---,0.00,VWS V14.01,2013-09-09 18:35:00,
2013-09-09 14:40:00,88.2,34.7,29.12,North,353,2.7,8.1,15,0.00,,---,0.00,VWS V14.01,2013-09-09 18:40:00,
2013-09-09 14:45:00,88.2,34.7,29.12,WNW,292,3.6,5.4,15,0.00,,---,0.00,VWS V14.01,2013-09-09 18:45:00,
2013-09-09 14:50:00,88.2,34.7,29.12,West,278,6.3,6.3,15,0.00,,---,0.00,VWS V14.01,2013-09-09 18:50:00,
2013-09-09 14:56:00,88.2,34.7,29.12,SW,226,4.0,4.0,15,0.00,,---,0.00,VWS V14.01,2013-09-09 18:56:00,
2013-09-09 15:01:00,88.2,34.7,29.12,WNW,290,6.3,6.3,15,0.00,,---,0.00,VWS V14.01,2013-09-09 19:01:00,
2013-09-09 15:06:00,88.2,34.7,29.12,NNW,328,6.3,7.2,15,0.00,,---,0.00,VWS V14.01,2013-09-09 19:06:00,
2013-09-09 15:11:00,88.2,34.7,29.12,WSW,249,3.6,6.3,15,0.00,,---,0.00,VWS V14.01,2013-09-09 19:11:00,
2013-09-09 15:16:00,88.2,34.7,29.12,West,266,3.1,7.6,15,0.00,,---,0.00,VWS V14.01,2013-09-09 19:16:00,
2013-09-09 15:21:00,88.5,35.0,29.12,SSW,195,6.7,6.7,15,0.00,,---,0.00,VWS V14.01,2013-09-09 19:21:00,
2013-09-09 15:26:00,88.5,35.0,29.12,WNW,285,3.6,6.3,15,0.00,,---,0.00,VWS V14.01,2013-09-09 19:26:00,
2013-09-09 15:31:00,88.7,35.2,29.12,NW,310,3.6,7.6,15,0.00,,---,0.00,VWS V14.01,2013-09-09 19:31:00,
2013-09-09 15:36:00,88.9,35.3,29.12,WSW,241,4.0,5.8,15,0.00,,---,0.00,VWS V14.01,2013-09-09 19:36:00,
2013-09-09 15:41:00,89.2,35.6,29.12,SSW,206,2.7,6.3,15,0.00,,---,0.00,VWS V14.01,2013-09-09 19:41:00,
2013-09-09 15:46:00,89.6,35.9,29.12,West,274,5.8,5.8,15,0.00,,---,0.00,VWS V14.01,2013-09-09 19:46:00,
2013-09-09 15:51:00,90.0,36.2,29.12,SSW,211,4.0,4.0,15,0.00,,---,0.00,VWS V14.01,2013-09-09 19:51:00,
2013-09-09 15:56:00,89.8,36.0,29.12,SSE,153,2.7,4.0,15,0.00,,---,0.00,VWS V14.01,2013-09-09 19:56:00,
2013-09-09 16:01:00,89.4,35.7,29.09,SSE,154,3.6,6.3,15,0.00,,---,0.00,VWS V14.01,2013-09-09 20:01:00,
2013-09-09 16:06:00,90.0,36.2,29.09,SW,216,2.7,4.9,15,0.00,,---,0.00,VWS V14.01,2013-09-09 20:06:00,
2013-09-09 16:11:00,90.1,36.3,29.09,WNW,294,3.6,4.0,15,0.00,,---,0.00,VWS V14.01,2013-09-09 20:11:00,
2013-09-09 16:16:00,90.0,36.2,29.09,SSE,149,2.7,3.6,15,0.00,,---,0.00,VWS V14.01,2013-09-09 20:16:00,
2013-09-09 16:21:00,90.1,36.3,29.09,West,273,6.3,6.3,15,0.00,,---,0.00,VWS V14.01,2013-09-09 20:21:00,
2013-09-09 16:26:00,90.0,36.2,29.09,West,266,6.3,8.7,15,0.00,,---,0.00,VWS V14.01,2013-09-09 20:26:00,
2013-09-09 16:31:00,90.3,36.5,29.09,NW,318,8.7,10.1,15,0.00,,---,0.00,VWS V14.01,2013-09-09 20:31:00,
2013-09-09 16:36:00,90.1,36.3,29.09,WNW,290,0.0,0.0,15,0.00,,---,0.00,VWS V14.01,2013-09-09 20:36:00,
2013-09-09 16:41:00,90.3,36.5,29.09,WNW,298,6.3,6.3,15,0.00,,---,0.00,VWS V14.01,2013-09-09 20:41:00,
2013-09-09 16:46:00,90.1,36.3,29.09,WSW,239,0.0,0.0,15,0.00,,---,0.00,VWS V14.01,2013-09-09 20:46:00,
2013-09-09 16:52:00,90.1,36.3,29.09,WSW,258,2.7,2.7,15,0.00,,---,0.00,VWS V14.01,2013-09-09 20:52:00,
2013-09-09 16:57:00,90.5,36.6,29.09,WSW,250,11.0,11.0,15,0.00,,---,0.00,VWS V14.01,2013-09-09 20:57:00,
2013-09-09 17:02:00,90.3,36.5,29.09,South,173,5.8,7.6,15,0.00,,---,0.00,VWS V14.01,2013-09-09 21:02:00,
2013-09-09 17:07:00,90.3,36.5,29.09,SSW,202,4.0,4.9,15,0.00,,---,0.00,VWS V14.01,2013-09-09 21:07:00,
2013-09-09 17:12:00,90.3,36.5,29.09,SSW,208,4.0,6.3,15,0.00,,---,0.00,VWS V14.01,2013-09-09 21:12:00,
2013-09-09 17:17:00,89.6,35.9,29.09,SW,224,2.7,5.4,15,0.00,,---,0.00,VWS V14.01,2013-09-09 21:17:00,
2013-09-09 17:22:00,89.2,35.6,29.09,WSW,247,5.8,6.3,15,0.00,,---,0.00,VWS V14.01,2013-09-09 21:22:00,
2013-09-09 17:27:00,89.1,35.5,29.09,SSW,211,5.4,8.1,15,0.00,,---,0.00,VWS V14.01,2013-09-09 21:27:00,
2013-09-09 17:32:00,89.2,35.6,29.09,SSE,163,3.6,5.8,15,0.00,,---,0.00,VWS V14.01,2013-09-09 21:32:00,
2013-09-09 17:37:00,89.6,35.9,29.09,SW,217,3.6,4.0,15,0.00,,---,0.00,VWS V14.01,2013-09-09 21:37:00,
2013-09-09 17:42:00,89.8,36.0,29.09,SSW,198,4.0,4.0,15,0.00,,---,0.00,VWS V14.01,2013-09-09 21:42:00,
2013-09-09 17:47:00,90.0,36.2,29.09,SSW,199,3.6,3.6,15,0.00,,---,0.00,VWS V14.01,2013-09-09 21:47:00,
2013-09-09 17:52:00,90.1,36.3,29.09,WSW,237,2.7,7.2,15,0.00,,---,0.00,VWS V14.01,2013-09-09 21:52:00,
2013-09-09 17:57:00,90.0,36.2,29.09,WSW,242,5.8,5.8,15,0.00,,---,0.00,VWS V14.01,2013-09-09 21:57:00,
2013-09-09 18:02:00,90.0,36.2,29.09,SSW,212,4.0,6.3,15,0.00,,---,0.00,VWS V14.01,2013-09-09 22:02:00,
2013-09-09 18:07:00,90.0,36.2,29.09,SSW,213,4.5,5.8,15,0.00,,---,0.00,VWS V14.01,2013-09-09 22:07:00,
2013-09-09 18:12:00,90.0,36.2,29.09,South,178,2.7,3.6,15,0.00,,---,0.00,VWS V14.01,2013-09-09 22:12:00,
2013-09-09 18:17:00,90.0,36.2,29.09,South,188,4.0,5.8,15,0.00,,---,0.00,VWS V14.01,2013-09-09 22:17:00,
2013-09-09 18:22:00,89.8,36.0,29.09,NNW,327,0.0,0.0,15,0.00,,---,0.00,VWS V14.01,2013-09-09 22:22:00,
2013-09-09 18:27:00,89.6,35.9,29.09,SW,232,5.4,5.4,15,0.00,,---,0.00,VWS V14.01,2013-09-09 22:27:00,
2013-09-09 18:32:00,89.6,35.9,29.09,WNW,297,4.0,4.0,15,0.00,,---,0.00,VWS V14.01,2013-09-09 22:32:00,
2013-09-09 18:37:00,89.6,35.9,29.09,South,176,4.9,4.9,15,0.00,,---,0.00,VWS V14.01,2013-09-09 22:37:00,
2013-09-09 18:42:00,89.4,35.7,29.09,SW,230,0.0,0.0,15,0.00,,---,0.00,VWS V14.01,2013-09-09 22:42:00,
2013-09-09 18:48:00,89.2,35.6,29.09,WSW,240,3.6,3.6,15,0.00,,---,0.00,VWS V14.01,2013-09-09 22:48:00,
2013-09-09 18:53:00,89.2,35.6,29.09,SW,231,0.0,5.8,15,0.00,,---,0.00,VWS V14.01,2013-09-09 22:53:00,
2013-09-09 18:58:00,88.9,35.3,29.09,SW,224,5.4,6.7,15,0.00,,---,0.00,VWS V14.01,2013-09-09 22:58:00,
2013-09-09 19:03:00,88.7,35.2,29.09,SW,227,3.6,6.3,15,0.00,,---,0.00,VWS V14.01,2013-09-09 23:03:00,
2013-09-09 19:08:00,88.5,35.0,29.09,SSW,206,0.0,4.0,15,0.00,,---,0.00,VWS V14.01,2013-09-09 23:08:00,
2013-09-09 19:13:00,88.2,34.7,29.09,SSW,203,2.2,3.6,15,0.00,,---,0.00,VWS V14.01,2013-09-09 23:13:00,
2013-09-09 19:18:00,88.0,34.6,29.09,WSW,249,0.0,3.1,15,0.00,,---,0.00,VWS V14.01,2013-09-09 23:18:00,
2013-09-09 19:23:00,87.8,34.5,29.09,South,181,5.8,5.8,15,0.00,,---,0.00,VWS V14.01,2013-09-09 23:23:00,
2013-09-09 19:28:00,87.4,38.8,29.09,SW,218,0.0,0.0,18,0.00,,---,0.00,VWS V14.01,2013-09-09 23:28:00,
2013-09-09 19:33:00,87.1,38.5,29.09,WSW,244,0.0,0.0,18,0.00,,---,0.00,VWS V14.01,2013-09-09 23:33:00,
2013-09-09 19:38:00,86.9,38.3,29.09,WSW,238,0.0,2.2,18,0.00,,---,0.00,VWS V14.01,2013-09-09 23:38:00,
2013-09-09 19:43:00,86.5,38.0,29.09,SW,214,5.8,5.8,18,0.00,,---,0.00,VWS V14.01,2013-09-09 23:43:00,
2013-09-09 19:48:00,86.2,37.8,29.09,WSW,247,0.0,0.0,18,0.00,,---,0.00,VWS V14.01,2013-09-09 23:48:00,
2013-09-09 19:53:00,85.8,37.5,29.09,SSW,192,0.0,0.0,18,0.00,,---,0.00,VWS V14.01,2013-09-09 23:53:00,
2013-09-09 19:58:00,85.6,38.7,29.09,SW,217,0.0,2.7,19,0.00,,---,0.00,VWS V14.01,2013-09-09 23:58:00,
2013-09-09 20:03:00,85.3,38.4,29.09,SSW,213,0.0,0.0,19,0.00,,---,0.00,VWS V14.01,2013-09-10 00:03:00,
2013-09-09 20:08:00,84.7,38.0,29.09,South,190,2.2,2.2,19,0.00,,---,0.00,VWS V14.01,2013-09-10 00:08:00,
2013-09-09 20:13:00,84.6,37.8,29.09,SSW,197,2.7,2.7,19,0.00,,---,0.00,VWS V14.01,2013-09-10 00:13:00,
2013-09-09 20:18:00,84.2,37.5,29.09,South,185,2.2,4.0,19,0.00,,---,0.00,VWS V14.01,2013-09-10 00:18:00,
2013-09-09 20:23:00,83.8,38.5,29.09,SW,227,0.0,0.0,20,0.00,,---,0.00,VWS V14.01,2013-09-10 00:23:00,
2013-09-09 20:28:00,83.7,38.4,29.09,South,190,0.0,0.0,20,0.00,,---,0.00,VWS V14.01,2013-09-10 00:28:00,
2013-09-09 20:33:00,83.3,38.1,29.09,South,191,0.0,0.0,20,0.00,,---,0.00,VWS V14.01,2013-09-10 00:33:00,
2013-09-09 20:38:00,83.1,37.9,29.09,SW,215,0.0,0.0,20,0.00,,---,0.00,VWS V14.01,2013-09-10 00:38:00,
2013-09-09 20:44:00,82.9,37.8,29.09,WSW,255,0.0,0.0,20,0.00,,---,0.00,VWS V14.01,2013-09-10 00:44:00,
2013-09-09 20:49:00,82.6,38.7,29.12,SSE,159,3.6,4.0,21,0.00,,---,0.00,VWS V14.01,2013-09-10 00:49:00,
2013-09-09 20:54:00,82.4,38.6,29.12,SW,224,0.0,0.0,21,0.00,,---,0.00,VWS V14.01,2013-09-10 00:54:00,
2013-09-09 20:59:00,82.2,38.4,29.12,SSW,192,2.7,2.7,21,0.00,,---,0.00,VWS V14.01,2013-09-10 00:59:00,
2013-09-09 21:04:00,82.0,38.3,29.12,SW,223,2.7,2.7,21,0.00,,---,0.00,VWS V14.01,2013-09-10 01:04:00,
2013-09-09 21:09:00,82.0,39.5,29.12,South,177,0.0,4.9,22,0.00,,---,0.00,VWS V14.01,2013-09-10 01:09:00,
2013-09-09 21:14:00,81.9,39.3,29.12,SW,232,0.0,2.7,22,0.00,,---,0.00,VWS V14.01,2013-09-10 01:14:00,
2013-09-09 21:19:00,81.7,39.2,29.12,SW,216,0.0,0.0,22,0.00,,---,0.00,VWS V14.01,2013-09-10 01:19:00,
2013-09-09 21:24:00,81.7,39.2,29.12,WSW,253,0.0,0.0,22,0.00,,---,0.00,VWS V14.01,2013-09-10 01:24:00,
2013-09-09 21:29:00,81.5,39.0,29.12,South,184,0.0,5.8,22,0.00,,---,0.00,VWS V14.01,2013-09-10 01:29:00,
2013-09-09 21:34:00,81.3,40.0,29.12,SSW,198,0.0,2.7,23,0.00,,---,0.00,VWS V14.01,2013-09-10 01:34:00,
2013-09-09 21:39:00,81.1,39.9,29.12,SSW,202,4.9,4.9,23,0.00,,---,0.00,VWS V14.01,2013-09-10 01:39:00,
2013-09-09 21:44:00,81.0,40.8,29.12,South,186,0.0,2.2,24,0.00,,---,0.00,VWS V14.01,2013-09-10 01:44:00,
2013-09-09 21:49:00,81.0,40.8,29.12,SSE,160,0.0,0.0,24,0.00,,---,0.00,VWS V14.01,2013-09-10 01:49:00,
2013-09-09 21:54:00,80.8,41.7,29.12,SW,214,2.7,4.9,25,0.00,,---,0.00,VWS V14.01,2013-09-10 01:54:00,
2013-09-09 21:59:00,80.6,41.6,29.12,SSE,167,0.0,5.4,25,0.00,,---,0.00,VWS V14.01,2013-09-10 01:59:00,
2013-09-09 22:04:00,80.4,42.4,29.12,SSW,206,0.0,0.0,26,0.00,,---,0.00,VWS V14.01,2013-09-10 02:04:00,
2013-09-09 22:09:00,80.2,43.3,29.12,South,190,0.0,3.1,27,0.00,,---,0.00,VWS V14.01,2013-09-10 02:09:00,
2013-09-09 22:14:00,80.2,44.2,29.12,SW,235,0.0,0.0,28,0.00,,---,0.00,VWS V14.01,2013-09-10 02:14:00,
2013-09-09 22:19:00,80.1,45.0,29.12,SSE,168,3.1,3.1,29,0.00,,---,0.00,VWS V14.01,2013-09-10 02:19:00,
2013-09-09 22:24:00,79.9,45.7,29.12,South,174,0.0,0.0,30,0.00,,---,0.00,VWS V14.01,2013-09-10 02:24:00,
2013-09-09 22:29:00,79.9,45.7,29.12,SSE,164,2.7,2.7,30,0.00,,---,0.00,VWS V14.01,2013-09-10 02:29:00,
2013-09-09 22:34:00,79.7,45.6,29.12,SW,219,0.0,0.0,30,0.00,,---,0.00,VWS V14.01,2013-09-10 02:34:00,
2013-09-09 22:40:00,79.7,45.6,29.12,WSW,237,0.0,0.0,30,0.00,,---,0.00,VWS V14.01,2013-09-10 02:40:00,
2013-09-09 22:45:00,79.5,45.4,29.12,SSW,208,0.0,0.0,30,0.00,,---,0.00,VWS V14.01,2013-09-10 02:45:00,
2013-09-09 22:50:00,79.5,45.4,29.12,SSW,197,4.0,4.0,30,0.00,,---,0.00,VWS V14.01,2013-09-10 02:50:00,
2013-09-09 22:55:00,79.3,46.1,29.12,WSW,237,0.0,0.0,31,0.00,,---,0.00,VWS V14.01,2013-09-10 02:55:00,
2013-09-09 23:00:00,79.2,46.0,29.12,SSW,204,2.7,3.1,31,0.00,,---,0.00,VWS V14.01,2013-09-10 03:00:00,
2013-09-09 23:05:00,79.2,46.0,29.12,South,187,3.6,3.6,31,0.00,,---,0.00,VWS V14.01,2013-09-10 03:05:00,
2013-09-09 23:10:00,79.0,45.8,29.12,SW,235,0.0,0.0,31,0.00,,---,0.00,VWS V14.01,2013-09-10 03:10:00,
2013-09-09 23:15:00,79.0,46.6,29.12,West,265,0.0,3.1,32,0.00,,---,0.00,VWS V14.01,2013-09-10 03:15:00,
2013-09-09 23:20:00,78.8,46.5,29.12,SW,235,0.0,4.0,32,0.00,,---,0.00,VWS V14.01,2013-09-10 03:20:00,
2013-09-09 23:25:00,78.8,46.5,29.12,SSW,213,0.0,0.0,32,0.00,,---,0.00,VWS V14.01,2013-09-10 03:25:00,
2013-09-09 23:30:00,78.6,47.1,29.15,West,275,0.0,2.7,33,0.00,,---,0.00,VWS V14.01,2013-09-10 03:30:00,
2013-09-09 23:35:00,78.4,47.0,29.15,SW,217,0.0,0.0,33,0.00,,---,0.00,VWS V14.01,2013-09-10 03:35:00,
2013-09-09 23:40:00,78.4,47.0,29.15,South,184,0.0,3.6,33,0.00,,---,0.00,VWS V14.01,2013-09-10 03:40:00,
2013-09-09 23:45:00,78.3,46.8,29.15,SSW,197,3.6,3.6,33,0.00,,---,0.00,VWS V14.01,2013-09-10 03:45:00,
2013-09-09 23:50:00,78.1,46.7,29.15,South,177,0.0,0.0,33,0.00,,---,0.00,VWS V14.01,2013-09-10 03:50:00,
2013-09-09 23:55:00,78.1,47.5,29.15,South,189,0.0,0.0,34,0.00,,---,0.00,VWS V14.01,2013-09-10 03:55:00,